Temp
18 18 16 17 16 17 17 17 17 17 17 17 17 17 17 16 16 16 16 16 16 16 16 16 16 16 16 16 16 16 16 16 16 16 15 15 16 15 16 16 16 16 15
20 18 17 16 16 17 17 17 17 17 17 17 17 16 16 16 16 16 16 16 16 16 15 15 15 16 16 16 16 16 16 16 16 15 15 15 15 15 15 16 15 15 15
19 18 17 16 16 16 16 16 16 16 16 16 17 16 16 16 16 15 15 16 15 15 15 15 15 15 15 15 15 16 15 15 15 15 15 15 15 15 15 15 15 15 15
19 18 17 16 16 16 16 16 16 16 16 16 16 16 16 15 15 15 15 16 16 15 15 15 15 15 15 15 15 15 15 15 15 15 15 15 15 15 15 16 16 15 15
18 18 17 16 16 16 16 16 16 16 16 16 16 16 15 15 15 15 16 16 16 16 15 14 14 14 14 14 14 15 15 15 15 15 15 15 15 15 15 15 15 15 15
17 17 16 16 16 16 16 16 16 16 16 16 15 15 15 15 15 15 15 15 15 15 16 15 14 14 14 14 14 14 14 14 15 15 15 15 15 15 15 15 14 15 14
17 16 16 16 16 16 16 16 16 15 16 15 15 15 15 15 15 15 15 15 15 15 15 14 14 14 13 14 14 14 15 15 15 15 15 14 14 15 14 15 15 14 14
16 16 16 16 16 16 16 16 15 15 15 15 15 15 15 14 14 14 14 14 14 14 13 14 14 14 14 14 15 14 15 15 15 14 14 14 14 14 14 14 15 14 14
16 16 15 16 15 15 16 15 15 15 15 15 15 15 15 14 14 13 13 13 13 14 14 14 14 14 14 14 15 15 14 15 15 14 14 14 14 14 14 14 14 14 14
15 15 15 15 15 15 15 15 15 15 14 14 15 15 14 14 13 13 13 13 14 14 14 14 14 14 14 14 14 14 14 14 14 14 14 13 14 14 14 14 14 14 14
15 15 15 14 14 14 14 14 14 15 15 14 15 15 14 14 13 13 14 14 14 13 14 14 14 13 14 14 13 14 14 14 14 14 13 13 14 14 14 14 14 14 13
15 15 15 14 14 14 14 14 14 14 14 14 14 15 15 14 14 14 14 14 14 13 13 13 13 14 14 13 13 14 14 14 14 14 13 13 14 14 14 14 14 14 13
15 14 14 14 14 14 14 14 13 13 14 13 14 14 14 14 14 14 13 13 13 13 13 13 13 13 13 12 13 13 13 13 14 14 13 13 13 13 14 14 13 13 13
14 14 14 14 13 14 14 14 14 13 13 13 13 13 14 14 14 13 13 13 13 13 13 13 13 13 13 13 13 13 12 13 13 13 13 14 14 13 13 13 13 13 13
14 14 14 13 13 13 13 13 13 13 13 13 13 13 13 14 14 14 13 13 13 13 13 12 12 12 12 12 12 12 12 13 12 12 13 13 13 14 13 13 13 13 13
14 14 15 14 13 13 13 13 12 13 12 12 13 13 13 14 14 14 14 13 13 13 13 12 12 12 12 11 12 11 12 12 11 12 12 12 12 13 13 12 13 13 12
14 14 14 13 13 13 12 12 12 12 12 12 12 13 13 14 14 14 14 13 13 13 12 11 11 11 11 11 11 11 11 10 10 10 11 11 12 12 13 13 12 12 12
14 14 14 13 13 13 12 12 12 12 12 12 12 13 13 13 14 14 14 13 13 13 11 10 10 11 11 11 11 11 10 10 9 9 10 10 11 11 12 12 12 13 11
14 14 14 14 14 13 12 12 12 11 12 12 12 13 13 13 13 13 13 13 13 12 11 10 10 10 11 10 10 9 9 9 9 9 9 10 10 11 11 11 10 11 11
14 14 14 14 13 13 12 12 12 12 12 12 12 12 12 12 12 12 13 13 13 12 11 10 10 10 10 10 9 8 7 8 9 9 9 10 11 10 10 10 9 10 9
12 13 13 14 13 14 12 12 12 11 11 11 11 11 12 12 12 12 12 12 12 12 12 11 11 10 9 9 9 7 7 7 8 8 9 10 10 10 10 9 9 9 10
12 12 12 13 13 12 12 12 12 11 11 10 10 10 11 11 11 12 12 12 12 12 11 11 11 11 9 9 8 8 7 6 7 7 8 8 9 9 9 9 9 9 9
12 11 11 11 12 12 12 12 11 10 10 10 10 10 11 11 11 12 11 12 11 11 11 10 10 10 10 9 8 9 8 7 7 7 7 7 8 9 9 8 8 8 7
11 11 11 11 11 11 11 11 10 11 10 10 10 10 11 11 11 11 11 11 10 10 10 9 9 9 9 10 9 8 9 9 8 7 7 7 8 8 8 8 8 7 7
10 10 10 10 10 10 11 10 10 8 10 10 9 10 10 10 10 10 10 10 10 10 9 9 9 9 8 8 8 9 9 9 9 9 7 6 6 7 7 6 7 7 7
9 10 10 10 9 9 10 10 9 9 10 9 10 9 8 10 9 9 10 9 10 9 9 8 8 8 8 7 7 7 8 8 8 8 7 6 5 6 6 6 5 5 6
Height
1510 1515 1519 1523 1527 1530 1532 1534 1537 1539 1541 1542 1544 1545 1547 1549 1551 1553 1554 1555 1558 1559 1561 1562 1563 1564 1565 1567 1567 1568 1569 1570 1571 1571 1573 1575 1575 1576 1576 1577 1576 1577 1578
1506 1514 1518 1523 1527 1530 1533 1536 1537 1540 1541 1543 1545 1547 1549 1551 1552 1555 1556 1557 1559 1561 1563 1564 1566 1567 1568 1569 1569 1570 1572 1573 1575 1576 1576 1577 1577 1579 1579 1580 1579 1580 1581
1507 1513 1518 1523 1527 1530 1533 1536 1539 1540 1542 1544 1547 1548 1550 1552 1554 1556 1558 1559 1561 1563 1565 1567 1568 1570 1571 1571 1572 1574 1575 1576 1578 1578 1579 1579 1580 1581 1582 1582 1582 1583 1583
1507 1512 1518 1523 1527 1530 1534 1536 1540 1542 1544 1546 1548 1550 1552 1554 1556 1558 1561 1562 1563 1565 1567 1570 1572 1573 1574 1575 1576 1577 1579 1580 1581 1581 1582 1582 1583 1584 1584 1584 1584 1586 1586
1507 1513 1518 1523 1526 1530 1534 1537 1540 1543 1544 1547 1549 1551 1553 1555 1558 1560 1562 1564 1564 1566 1569 1573 1576 1577 1577 1578 1580 1581 1582 1583 1584 1584 1584 1584 1586 1586 1586 1587 1587 1588 1589
1507 1513 1518 1522 1526 1530 1534 1537 1540 1543 1545 1548 1550 1552 1554 1556 1559 1562 1564 1566 1568 1567 1570 1574 1576 1579 1581 1581 1582 1584 1585 1586 1587 1586 1587 1588 1588 1588 1590 1590 1590 1590 1591
1507 1513 1519 1522 1526 1530 1534 1538 1541 1544 1546 1549 1551 1554 1556 1558 1561 1563 1565 1567 1569 1571 1570 1573 1576 1577 1579 1583 1584 1585 1586 1587 1588 1589 1590 1590 1591 1592 1593 1593 1593 1594 1594
1507 1512 1518 1523 1527 1531 1534 1538 1542 1545 1548 1550 1553 1555 1558 1560 1562 1564 1565 1568 1571 1572 1575 1577 1580 1583 1585 1585 1587 1588 1588 1589 1590 1591 1593 1593 1594 1595 1595 1596 1597 1597 1598
1509 1513 1518 1522 1527 1531 1535 1539 1542 1546 1549 1551 1554 1557 1560 1561 1564 1566 1568 1570 1573 1575 1578 1581 1582 1586 1587 1589 1590 1590 1591 1592 1591 1593 1595 1596 1597 1598 1599 1599 1599 1600 1601
1509 1513 1517 1522 1526 1530 1535 1539 1543 1546 1548 1551 1554 1557 1561 1563 1567 1569 1571 1573 1575 1577 1580 1583 1585 1588 1589 1591 1592 1593 1595 1595 1594 1596 1598 1599 1600 1600 1601 1602 1602 1603 1604
1509 1511 1516 1521 1525 1529 1534 1538 1542 1546 1550 1553 1556 1559 1562 1564 1567 1570 1573 1575 1578 1581 1583 1586 1588 1590 1591 1592 1594 1595 1597 1597 1598 1599 1600 1602 1602 1603 1604 1605 1605 1605 1606
1505 1508 1514 1519 1523 1528 1532 1536 1541 1546 1550 1554 1557 1560 1562 1565 1568 1571 1575 1577 1579 1582 1584 1587 1589 1591 1593 1595 1596 1597 1599 1601 1601 1601 1602 1604 1605 1606 1606 1606 1607 1607 1608
1503 1507 1511 1515 1521 1526 1530 1535 1540 1545 1549 1553 1557 1560 1563 1566 1569 1573 1576 1579 1582 1584 1586 1589 1590 1593 1595 1597 1598 1600 1601 1603 1604 1604 1605 1606 1608 1607 1608 1608 1608 1608 1609
1500 1505 1508 1514 1520 1525 1530 1534 1538 1543 1548 1552 1557 1561 1564 1566 1570 1573 1576 1579 1582 1585 1588 1591 1593 1595 1596 1599 1601 1603 1604 1604 1606 1607 1607 1608 1608 1609 1609 1609 1610 1610 1610
1497 1502 1508 1513 1518 1523 1528 1532 1539 1544 1548 1553 1557 1561 1565 1567 1570 1574 1577 1580 1583 1586 1589 1591 1594 1596 1598 1600 1601 1602 1604 1605 1606 1607 1608 1609 1611 1610 1610 1610 1610 1610 1611
1495 1500 1505 1512 1516 1521 1527 1533 1538 1543 1548 1553 1557 1562 1566 1569 1572 1576 1578 1581 1584 1587 1589 1592 1595 1597 1599 1601 1603 1604 1605 1606 1608 1609 1610 1610 1611 1611 1611 1610 1611 1610 1611
1493 1497 1503 1509 1516 1522 1526 1531 1537 1542 1548 1552 1557 1562 1566 1569 1572 1576 1579 1582 1585 1587 1590 1593 1595 1598 1600 1602 1604 1606 1607 1608 1609 1610 1612 1612 1612 1613 1613 1612 1611 1609 1611
1491 1495 1501 1508 1513 1520 1526 1530 1536 1541 1546 1552 1557 1561 1565 1569 1572 1574 1577 1581 1584 1586 1590 1593 1596 1598 1601 1603 1605 1607 1609 1610 1611 1612 1613 1615 1613 1615 1615 1615 1615 1614 1614
1489 1494 1499 1504 1510 1517 1523 1530 1535 1541 1546 1551 1555 1559 1564 1568 1571 1574 1576 1579 1582 1585 1588 1592 1595 1599 1601 1604 1606 1608 1610 1611 1612 1613 1615 1617 1616 1617 1617 1618 1619 1619 1619
1486 1490 1497 1501 1508 1514 1520 1526 1533 1539 1544 1550 1554 1558 1562 1567 1570 1574 1576 1579 1582 1584 1587 1591 1594 1597 1600 1602 1605 1608 1610 1611 1612 1613 1615 1617 1618 1619 1620 1621 1621 1622 1623
1483 1487 1493 1497 1504 1509 1517 1521 1529 1534 1540 1546 1552 1557 1561 1564 1568 1572 1576 1578 1581 1584 1587 1589 1592 1596 1598 1601 1603 1607 1610 1611 1612 1613 1615 1616 1617 1619 1620 1621 1622 1623 1623
1481 1486 1491 1496 1501 1506 1511 1518 1525 1531 1537 1544 1550 1555 1559 1564 1568 1572 1575 1578 1581 1582 1585 1588 1590 1592 1597 1599 1602 1605 1609 1612 1612 1613 1614 1615 1616 1618 1619 1620 1622 1623 1623
1477 1483 1489 1491 1499 1502 1506 1513 1519 1527 1534 1540 1547 1552 1556 1561 1566 1570 1573 1577 1579 1581 1583 1586 1589 1592 1594 1597 1600 1603 1605 1607 1610 1611 1612 1614 1615 1616 1618 1619 1620 1622 1622
1474 1480 1486 1490 1497 1502 1503 1511 1518 1522 1529 1535 1542 1549 1553 1557 1562 1567 1571 1575 1578 1580 1582 1585 1587 1590 1593 1596 1598 1600 1602 1604 1606 1608 1610 1611 1613 1614 1615 1616 1618 1619 1621
1471 1477 1483 1488 1496 1498 1507 1508 1515 1513 1523 1530 1535 1544 1549 1554 1561 1563 1567 1572 1575 1578 1581 1583 1585 1588 1591 1594 1597 1598 1600 1601 1602 1604 1605 1608 1611 1612 1613 1614 1615 1617 1618
1465 1473 1480 1486 1492 1499 1504 1504 1511 1519 1522 1526 1535 1537 1544 1550 1557 1562 1565 1570 1574 1576 1579 1582 1584 1587 1589 1592 1595 1597 1599 1600 1601 1602 1604 1606 1608 1610 1611 1612 1613 1614 1616
Wind_Speed
26 27 26 27 28 26 24 23 21 20 20 21 21 21 21 20 20 20 20 19 19 19 18 18 18 17 19 21 21 21 21 22 24 25 24 23 22 22 22 22 23 23 22
34 29 27 29 27 26 24 23 22 21 20 20 20 21 22 21 21 20 20 21 20 21 20 20 20 23 24 24 23 22 21 22 22 22 22 22 21 21 20 21 22 22 20
34 30 29 30 26 27 25 24 22 21 20 20 20 20 20 21 21 21 23 23 23 23 22 22 24 26 26 26 25 24 23 21 21 21 21 22 21 20 19 17 19 18 17
34 32 33 29 26 27 26 25 23 21 20 19 19 19 19 21 23 24 24 24 24 25 23 23 25 25 25 24 24 24 22 20 19 19 21 21 19 17 17 17 18 17 16
34 32 33 29 28 27 26 24 23 22 21 20 19 19 21 23 25 26 25 25 26 23 25 24 22 23 24 24 22 21 20 18 18 19 19 18 18 18 17 20 21 19 17
35 35 32 30 29 29 27 25 24 22 21 21 20 21 22 23 26 24 15 21 20 27 24 22 23 23 22 23 22 19 15 14 16 18 19 18 18 17 18 19 19 20 20
37 37 31 30 30 30 28 25 24 22 22 21 22 22 22 24 22 16 18 19 23 17 19 21 19 18 22 20 19 17 14 14 15 17 17 17 16 17 18 18 19 18 19
39 35 33 31 31 30 28 26 25 23 23 24 25 23 21 22 20 22 24 23 23 21 21 20 20 17 17 15 13 13 13 16 18 18 18 17 16 16 16 17 18 20 18
38 35 33 33 32 30 28 27 26 25 25 25 27 24 23 22 24 25 25 24 22 22 21 23 22 19 19 16 13 10 13 17 19 19 18 17 15 15 15 17 17 16 14
38 36 35 34 33 31 29 28 27 27 28 29 28 25 25 26 27 27 26 25 24 23 22 22 22 19 20 17 15 15 15 18 21 21 18 14 14 14 14 16 15 13 12
38 36 36 36 35 34 32 31 30 29 28 29 26 24 25 29 30 28 25 24 25 25 23 21 19 18 17 16 14 13 10 15 18 21 19 13 12 13 13 13 12 12 11
42 39 38 38 37 37 34 33 31 30 30 28 26 24 25 28 28 26 24 23 23 23 23 22 20 18 15 15 17 15 17 17 17 20 20 15 13 12 11 10 10 10 11
40 41 41 40 39 39 37 35 33 33 31 29 27 27 26 27 26 24 24 24 22 20 21 23 24 22 20 20 22 22 20 17 17 17 17 16 13 11 11 9 9 10 10
40 42 43 41 40 39 37 36 35 33 32 32 29 28 29 29 28 26 24 23 22 21 21 20 18 18 20 21 20 16 16 16 15 15 16 12 10 10 9 8 7 7 7
41 43 41 41 40 39 39 38 34 33 33 29 29 30 29 29 28 25 22 20 19 20 20 19 17 16 16 15 14 12 10 9 6 6 5 8 8 10 8 5 5 5 7
41 44 42 40 41 39 37 36 34 33 31 31 32 29 27 24 22 21 20 19 18 19 20 18 15 14 14 13 13 14 13 11 11 10 9 7 5 4 10 11 3 6 7
41 42 41 41 38 36 38 37 36 38 34 35 31 27 24 22 19 17 17 17 16 17 17 16 14 13 12 13 12 11 10 11 9 11 8 7 6 4 6 10 19 11 8
42 42 41 37 41 39 37 38 35 36 39 36 33 30 26 23 20 17 15 16 16 17 18 17 18 16 13 13 13 12 11 11 11 9 10 11 17 18 19 15 18 21 27
40 42 41 41 41 40 40 36 37 41 40 37 33 29 27 24 22 20 19 18 18 18 20 22 21 17 17 15 13 14 14 11 12 14 12 11 13 9 11 9 9 11 19
43 42 44 42 41 40 44 44 42 45 43 38 34 32 30 27 25 22 20 19 18 18 19 21 18 21 19 17 18 17 15 13 11 11 11 10 8 7 5 3 6 3 4
42 46 45 47 46 46 46 49 49 47 44 39 36 33 32 30 27 24 21 20 18 16 18 19 19 20 22 19 17 16 14 12 11 11 10 10 10 8 6 5 5 1 2
40 40 47 47 48 48 51 50 50 47 43 39 36 35 32 29 26 24 21 21 19 17 18 19 21 22 21 20 17 15 10 8 10 8 9 9 10 9 8 8 9 8 6
42 43 51 46 54 50 47 49 52 49 43 39 37 36 34 31 26 24 23 21 21 18 16 18 20 19 20 22 19 12 8 8 12 9 9 9 9 8 8 8 10 11 11
42 43 42 45 42 49 45 51 50 52 47 45 41 40 38 35 32 28 26 23 21 18 17 18 19 18 17 17 20 19 12 7 10 9 11 11 10 9 8 7 6 8 11
43 43 45 43 50 50 43 49 47 56 42 41 45 43 40 35 33 32 28 26 23 20 20 20 20 20 18 17 16 18 18 13 11 9 11 14 12 10 9 8 8 8 8
45 43 40 42 40 41 40 38 41 36 40 41 46 45 41 39 36 32 29 26 24 22 21 21 20 18 17 16 17 17 17 17 16 13 10 13 12 11 11 10 9 7 8
Wind_Direction
172 168 161 162 160 155 151 148 144 140 137 136 134 135 134 131 128 126 122 119 120 121 124 119 121 117 110 112 112 112 109 108 109 110 109 108 104 99 97 94 95 96 98
158 166 161 160 158 156 152 149 147 143 140 138 136 136 134 131 128 124 123 122 120 118 119 119 117 115 110 111 113 115 111 109 110 111 111 109 104 101 96 93 94 96 100
160 162 160 156 161 156 153 152 149 144 142 140 139 138 135 134 131 127 126 123 119 118 117 117 120 116 114 113 112 111 110 107 111 110 109 109 105 100 97 93 96 95 96
162 160 158 157 163 157 155 153 150 146 144 143 142 140 138 137 133 128 124 118 115 117 118 121 123 121 118 116 113 108 104 106 108 109 108 107 102 98 96 95 98 101 101
162 160 157 161 162 159 156 153 151 150 148 146 144 143 140 137 136 132 129 128 122 120 120 121 123 122 120 114 107 107 104 101 109 107 105 109 105 104 95 97 98 96 96
162 161 157 163 161 160 158 156 155 154 150 148 145 143 141 143 142 141 139 145 139 121 117 127 128 125 126 122 120 117 108 101 110 108 104 102 105 107 101 100 95 95 99
162 160 161 164 161 160 160 159 157 155 150 148 145 140 138 138 144 148 146 153 150 154 149 140 118 124 122 121 121 118 122 120 121 109 106 103 104 108 104 102 96 100 103
163 160 164 163 162 162 162 161 159 156 153 150 146 142 141 141 141 133 131 136 138 130 130 134 130 129 122 115 107 111 110 119 124 112 105 105 109 112 106 107 105 100 105
165 163 165 164 165 164 164 163 160 158 153 151 149 142 139 138 136 135 134 134 138 142 143 138 138 137 126 124 122 116 118 118 122 116 104 101 108 111 107 112 111 104 103
166 168 167 166 166 165 164 164 162 161 159 158 153 148 141 137 137 137 134 137 138 139 142 145 144 143 128 123 118 118 124 119 112 107 103 104 106 108 108 110 108 101 103
171 172 171 169 168 166 165 167 168 167 163 162 158 156 151 145 144 143 141 134 131 131 131 137 144 142 138 133 126 117 119 125 120 109 98 101 116 109 111 112 105 101 106
176 174 175 173 170 169 169 171 171 167 165 164 163 163 157 154 152 148 143 140 136 132 131 131 132 135 143 137 127 123 119 115 115 108 100 98 103 106 111 113 109 109 111
179 177 179 177 174 173 174 173 172 171 171 166 164 163 158 154 151 146 141 143 145 143 137 130 123 119 124 127 123 116 110 105 101 96 96 99 98 103 107 106 109 115 111
181 182 183 180 177 179 177 177 177 176 174 171 167 168 161 157 155 152 149 147 147 147 148 147 142 133 129 130 129 123 113 105 95 90 88 84 101 99 101 107 106 113 117
178 187 186 183 181 183 182 181 177 177 176 175 170 169 166 163 159 155 152 152 154 156 159 154 150 143 141 142 142 143 139 123 116 118 115 97 74 90 94 118 132 144 148
186 184 189 188 187 186 185 181 181 178 175 171 166 166 169 170 164 162 160 158 158 155 161 162 149 145 141 134 130 126 130 127 121 111 115 116 92 71 96 93 114 195 184
193 190 190 190 185 189 186 180 180 178 178 170 167 166 164 162 156 157 161 162 163 159 159 157 152 151 144 141 143 137 129 127 121 113 111 100 77 80 93 90 73 137 158
196 194 189 195 188 190 186 183 183 183 175 172 169 167 166 166 163 158 162 164 166 165 162 161 156 159 160 157 150 142 135 127 121 109 108 117 111 113 104 97 82 97 83
200 197 195 193 192 192 185 184 183 181 176 175 174 172 173 174 171 167 166 165 166 167 164 167 165 172 171 172 166 155 145 142 130 119 117 121 116 120 98 92 69 79 94
199 200 197 193 188 188 183 183 186 180 179 180 180 178 175 173 170 170 169 169 168 169 167 172 178 175 183 187 178 163 158 160 151 148 150 157 170 141 115 29 2 3 37
201 198 200 196 193 192 186 181 183 182 182 181 182 179 176 175 172 170 173 166 167 178 184 185 189 192 179 186 193 175 166 168 171 166 173 189 201 214 225 234 217 260 341
198 200 198 198 198 193 189 188 189 184 182 183 181 179 177 176 173 174 175 172 170 173 184 194 201 198 197 194 191 176 168 180 186 194 192 201 207 216 224 220 212 207 202
200 201 203 201 197 198 190 193 186 184 187 184 183 179 180 177 181 185 179 184 179 179 193 199 202 208 208 199 195 193 181 205 199 206 206 210 213 211 219 227 228 229 225
196 200 205 205 205 203 197 193 193 188 193 184 184 184 183 183 185 185 184 184 184 179 185 192 197 203 210 213 204 206 215 207 193 197 210 211 212 214 204 210 230 230 226
196 201 204 202 200 193 198 199 194 200 194 194 188 187 185 187 187 185 186 189 187 184 181 187 194 198 202 210 220 222 221 217 214 210 199 207 210 212 221 215 208 232 237
193 198 202 202 208 199 203 202 202 207 211 191 196 190 185 188 187 186 190 189 189 189 186 187 189 196 202 203 216 220 228 225 222 220 212 197 204 211 215 220 220 213 233